Location: Ellerstadt
(49.4644°N, 8.2615°E)
Time: 11:49:07
(UTC+00:00)

ATLAS CENTAUR R/B - Pass Details

Date: 03 March 2021
Orbit: 475 x 670 km, 64.7° (Epoch: 30 March)

Event Time Altitude Azimuth Distance (km) Brightness Sun altitude
Rises 18:19:09 0° 197° (SSW) 2,520 4.9 -11.5°
Reaches altitude 10° 18:21:23 10° 188° (S) 1,640 3.8 -11.9°
Maximum altitude 18:24:43 35° 121° (ESE) 779 1.6 -12.4°
Enters shadow 18:27:02 17° 63° (ENE) 1,274 2.7 -12.8°
